Вернуться в каталог

STARLINK-36596

АктивенСвязьSSO
NORAD 67670·PAYLOAD·🇺🇸 United States

Запущен Feb 2, 2026 с Vandenberg Space Force Base

Loading…

Ближайшие Пролёты (ближайшие 24 часа)

TLE

СвежийSource: CelesTrak SupGP

Эпоха: Sep 15, 2026, 04:07 UTC

1 67670C 26022Y   26258.17201389 -.00059211  00000+0 -18382-2 0  2583
2 67670  97.2840 289.8391 0000913  90.8645 223.8768 15.33467983    19

Отслеживайте STARLINK-36596 в реальном времени с AllMySat

Download on the App Store